1501891200.77,45845,24.0,74472.0,11.59,5.15,2.31,0,*48
1501891202.0,45846,24.0,74476.8,11.57,5.11,2.17,0,*45
1501891203.23,45847,24.0,74482.8,11.57,5.07,2.17,0,*43
1501891204.46,45848,24.0,74476.5,11.53,5.07,2.13,0,*4C
1501891205.69,45849,24.0,74476.3,11.53,5.19,2.21,0,*43
1501891206.93,45850,24.0,74466.8,11.57,5.19,2.17,0,*4A
1501891208.16,45851,24.0,74468.8,11.57,5.19,2.09,0,*44
1501891209.39,45852,24.0,74476.5,11.57,5.19,2.09,0,*47
1501891210.63,45853,24.0,74482.5,11.57,5.19,2.09,0,*46
1501891211.85,45854,24.0,74482.5,11.57,5.07,1.97,0,*4A
1501891213.07,45855,24.0,74482.5,11.57,5.07,1.97,0,*4B
1501891214.29,45856,24.0,74480.5,11.57,5.07,1.89,0,*47
1501891215.49,45857,24.0,74482.3,11.53,5.07,1.83,0,*48
1501891216.7,45858,24.0,74478.0,11.53,5.07,1.83,0,*47
1501891217.91,45859,24.0,74472.3,11.53,5.07,1.83,0,*46
1501891219.12,45860,24.0,74472.8,11.57,5.19,1.79,0,*42
1501891220.32,45861,24.0,74478.3,11.57,5.19,1.75,0,*4F
1501891221.53,45862,24.0,74472.8,11.57,5.11,1.75,0,*44
1501891222.75,45863,24.0,74476.5,11.57,5.23,1.67,0,*47
1501891223.98,45864,24.0,74476.3,11.57,5.19,1.63,0,*4D
1501891225.21,45865,24.0,74480.5,11.57,5.23,1.67,0,*41
1501891226.43,45866,24.0,74486.0,11.57,5.23,1.67,0,*42
1501891227.66,45867,24.0,74488.0,11.57,5.19,1.55,0,*4B
1501891228.88,45868,24.0,74490.3,11.57,5.07,1.43,0,*4C
1501891230.08,45869,24.0,74486.3,11.57,5.11,1.41,0,*48
1501891231.31,45870,24.0,74474.8,11.57,5.11,1.33,0,*45
1501891232.54,45871,24.0,74464.3,11.57,5.07,1.33,0,*43
1501891233.76,45872,24.0,74466.0,11.57,5.07,1.25,0,*47
1501891234.98,45873,24.0,74472.3,11.57,5.07,1.25,0,*46
1501891236.21,45874,24.0,74478.5,11.57,5.07,1.17,0,*40
1501891237.41,45875,24.0,74486.5,11.57,5.07,1.05,0,*42
1501891238.61,45876,24.0,74494.5,11.57,5.07,1.01,0,*45
1501891239.82,45877,24.0,74496.5,11.51,5.05,1.01,0,*40
1501891241.04,45878,24.0,74494.0,11.53,5.05,0.97,0,*73
1501891242.3,45879,24.0,74496.0,11.53,5.05,0.91,0,*74
1501891243.56,45880,24.0,74496.5,11.57,5.05,0.91,0,*76
1501891244.82,45881,24.0,74496.8,11.53,5.01,0.75,0,*7D
1501891246.07,45882,24.0,74502.8,11.53,5.01,0.75,0,*7E
1501891247.33,45883,24.0,74498.3,11.57,4.93,0.59,0,*7F
1501891248.54,45884,24.0,74492.8,11.51,4.89,0.55,0,*79
1501891249.76,45885,24.0,74498.5,11.53,4.81,0.47,0,*71
1501891250.99,45886,24.0,74498.8,11.53,4.81,0.41,0,*74
1501891252.25,45887,24.0,74498.3,11.53,4.71,0.37,0,*7B
1501891253.5,45888,24.0,74496.8,11.53,4.79,0.37,0,*7C
1501891254.75,45889,24.0,74496.5,11.53,4.79,0.29,0,*72
1501891256.01,45890,24.0,74502.0,11.53,4.71,0.25,0,*7E
1501891257.24,45891,24.0,74502.0,11.51,4.71,0.13,0,*78
1501891258.45,45892,24.0,74502.3,11.51,4.71,0.01,0,*48
1501891259.68,45893,24.0,74506.5,11.57,4.71,0.09,0,*47
1501891260.88,45894,24.0,74504.0,11.51,4.67,0.01,0,*49
1501891262.12,45895,24.0,74502.3,11.53,4.67,-0.11,0,*56
1501891263.33,45896,24.0,74504.5,11.53,4.57,-0.11,0,*56
1501891264.56,45897,24.0,74504.0,11.53,4.49,-0.23,0,*59
1501891265.79,45898,24.0,74504.8,11.53,4.49,-0.23,0,*56
1501891266.97,45899,24.0,74500.8,11.51,4.49,-0.33,0,*54
1501891268.18,45900,24.0,74492.8,11.53,4.49,-0.37,0,*53
1501891269.39,45901,24.0,74496.0,11.53,4.49,-0.49,0,*5B
1501891270.58,45902,24.0,74494.5,11.51,4.37,-0.57,0,*5C
1501891271.77,45903,24.0,74500.5,11.51,4.37,-0.57,0,*5D
1501891272.98,45904,24.0,74500.0,11.51,4.31,-0.61,0,*59
1501891274.17,45905,24.0,74496.8,11.51,4.33,-0.69,0,*52
1501891275.36,45906,24.0,74504.3,11.51,4.33,-0.73,0,*5A
1501891276.57,45907,24.0,74498.3,11.51,4.31,-0.81,0,*54
1501891277.79,45908,23.94,74496.3,11.51,4.31,-0.81,0,*5B
1501891279.02,45909,24.0,74498.8,11.49,4.27,-0.89,0,*5C
1501891280.23,45910,24.0,74500.8,11.51,4.23,-0.85,0,*55
1501891281.43,45911,24.0,74504.8,11.51,4.19,-0.93,0,*5A
1501891282.66,45912,24.0,74504.8,11.49,4.19,-1.01,0,*6A
1501891283.88,45913,24.0,74504.0,11.51,4.19,-1.05,0,*66
1501891285.09,45914,24.0,74506.0,11.51,4.11,-1.09,0,*65
1501891286.33,45915,24.0,74508.5,11.49,4.05,-1.17,0,*67
1501891287.57,45916,24.0,74500.8,11.49,4.05,-1.25,0,*65
1501891288.8,45917,24.0,74496.3,11.49,3.97,-1.29,0,*64
1501891290.04,45918,24.0,74492.0,11.49,3.93,-1.35,0,*62
1501891291.28,45919,24.0,74492.5,11.49,3.93,-1.35,0,*63
1501891292.52,45920,24.0,74492.5,11.49,3.85,-1.47,0,*6B
1501891293.76,45921,23.94,74494.5,11.49,3.85,-1.47,0,*6A
1501891295.0,45922,24.0,74498.5,11.49,3.93,-1.47,0,*6E
1501891296.24,45923,24.0,74498.8,11.49,3.85,-1.47,0,*68
1501891297.48,45924,24.0,74500.5,11.49,3.75,-1.51,0,*67
1501891298.72,45925,24.0,74500.5,11.49,3.75,-1.59,0,*6E
1501891299.93,45926,24.0,74502.8,11.49,3.63,-1.59,0,*6A
1501891301.12,45927,24.0,74498.0,11.47,3.59,-1.63,0,*65
1501891302.31,45928,23.94,74496.0,11.47,3.63,-1.63,0,*63
1501891303.49,45929,24.0,74496.5,11.47,3.55,-1.79,0,*6C
1501891304.68,45930,24.0,74498.0,11.47,3.55,-1.79,0,*64
1501891305.89,45931,24.0,74498.8,11.47,3.55,-1.87,0,*64
1501891307.13,45932,24.0,74500.5,11.47,3.53,-1.87,0,*61
1501891308.37,45933,24.0,74500.8,11.47,3.53,-1.91,0,*67
1501891309.61,45934,23.94,74502.5,11.47,3.45,-1.87,0,*60
1501891310.85,45935,23.94,74498.0,11.47,3.45,-1.95,0,*62
1501891312.09,45936,24.0,74492.8,11.47,3.41,-1.95,0,*65
1501891313.33,45937,23.94,74492.3,11.47,3.41,-2.03,0,*68
1501891314.58,45938,24.0,74492.8,11.47,3.23,-2.07,0,*67
1501891315.82,45939,23.94,74494.0,11.49,3.25,-2.03,0,*6A
1501891317.06,45940,23.94,74492.3,11.49,3.15,-2.19,0,*6C
1501891318.27,45941,24.0,74494.0,11.47,3.19,-2.15,0,*63
1501891319.5,45942,23.94,74492.3,11.47,3.11,-2.15,0,*68
1501891320.74,45943,23.94,74496.5,11.45,3.07,-2.27,0,*6D
1501891321.95,45944,23.94,74498.0,11.45,2.99,-2.27,0,*6C
1501891323.17,45945,24.0,74498.0,11.45,2.99,-2.31,0,*6A
1501891324.39,45946,24.0,74488.3,11.45,2.95,-2.31,0,*65
1501891325.63,45947,23.94,74486.8,11.45,2.89,-2.31,0,*69
1501891326.87,45948,23.94,74484.8,11.45,2.89,-2.31,0,*66
1501891328.11,45949,24.0,74488.8,11.45,2.89,-2.31,0,*67
1501891329.35,45950,23.94,74484.5,11.45,2.89,-2.31,0,*6F
1501891330.59,45951,24.0,74488.0,11.45,2.77,-2.39,0,*67
1501891331.82,45952,24.0,74488.3,11.45,2.73,-2.43,0,*6D
1501891333.05,45953,23.94,74492.0,11.45,2.69,-2.43,0,*67
1501891334.28,45954,23.94,74492.3,11.43,2.65,-2.47,0,*6E
1501891335.49,45955,23.94,74494.3,11.45,2.61,-2.43,0,*69
1501891336.7,45956,23.94,74496.8,11.45,2.61,-2.43,0,*6A
1501891337.97,45957,23.94,74498.3,11.45,2.59,-2.47,0,*64
1501891339.22,45958,23.94,74500.5,11.43,2.59,-2.55,0,*6E
1501891340.46,45959,24.0,74500.5,11.45,2.59,-2.43,0,*6E
1501891341.67,45960,23.94,74490.0,11.43,2.59,-2.43,0,*62
1501891342.92,45961,24.0,74492.0,11.43,2.59,-2.47,0,*67
1501891344.16,45962,24.0,74494.5,11.43,2.47,-2.47,0,*6B
1501891345.4,45963,23.94,74492.5,11.45,2.47,-2.43,0,*68
1501891346.62,45964,23.94,74494.5,11.43,2.35,-2.55,0,*6B
1501891347.84,45965,24.0,74496.5,11.43,2.31,-2.55,0,*6E
1501891349.08,45966,23.94,74494.5,11.45,2.35,-2.55,0,*6F
1501891350.3,45967,23.94,74492.8,11.43,2.31,-2.55,0,*6C
1501891351.56,45968,23.94,74496.5,11.41,2.21,-2.59,0,*6C
1501891352.82,45969,24.0,74500.0,11.41,2.21,-2.59,0,*6D
1501891354.09,45970,23.94,74494.8,11.41,2.17,-2.59,0,*60
1501891355.33,45971,24.0,74500.3,11.43,2.21,-2.47,0,*69
1501891356.6,45972,23.94,74500.8,11.41,2.21,-2.51,0,*6F
1501891357.86,45973,24.0,74500.5,11.41,2.21,-2.47,0,*69
1501891359.12,45974,24.0,74496.0,11.41,2.21,-2.47,0,*6E
1501891360.34,45975,23.94,74492.0,11.41,2.27,-2.39,0,*60
1501891361.57,45976,23.94,74496.3,11.41,2.21,-2.39,0,*65
1501891362.82,45977,23.94,74494.8,11.41,2.17,-2.39,0,*61
1501891364.06,45978,23.94,74496.0,11.41,2.09,-2.39,0,*61
1501891365.3,45979,24.0,74492.0,11.41,2.05,-2.39,0,*6C
1501891366.54,45980,23.94,74490.8,11.41,2.09,-2.39,0,*66
1501891367.78,45981,23.94,74492.8,11.41,2.05,-2.35,0,*67
1501891369.02,45982,24.0,74498.0,11.41,2.05,-2.39,0,*68
1501891370.24,45983,24.0,74498.3,11.39,2.05,-2.39,0,*66
1501891371.48,45984,23.94,74498.3,11.41,2.05,-2.39,0,*6E
1501891372.72,45985,23.94,74496.3,11.41,2.05,-2.35,0,*63
1501891373.94,45986,23.94,74498.8,11.39,2.05,-2.39,0,*63
1501891375.16,45987,23.94,74498.3,11.39,1.97,-2.35,0,*66
1501891376.39,45988,24.0,74502.8,11.39,1.97,-2.35,0,*69
1501891377.61,45989,24.0,74500.5,11.39,1.97,-2.35,0,*68
1501891378.83,45990,23.94,74492.8,11.39,1.97,-2.27,0,*63
1501891380.07,45991,23.94,74494.5,11.41,1.93,-2.27,0,*69
1501891381.29,45992,24.0,74502.5,11.39,1.97,-2.23,0,*65
1501891382.52,45993,23.94,74500.5,11.39,1.97,-2.15,0,*61
1501891383.76,45994,23.94,74502.0,11.41,2.05,-2.23,0,*64
1501891384.98,45995,23.94,74498.8,11.39,2.05,-2.15,0,*6F
1501891386.2,45996,23.94,74496.8,11.39,1.97,-2.15,0,*64
1501891387.47,45997,24.0,74502.0,11.41,1.97,-2.11,0,*6E
1501891388.72,45998,24.0,74506.5,11.39,2.05,-2.03,0,*65
1501891389.96,45999,23.94,74500.5,11.39,2.09,-2.03,0,*68
1501891391.2,46000,23.94,74498.0,11.39,2.09,-1.95,0,*6E
1501891392.45,46001,23.94,74498.8,11.39,2.09,-1.87,0,*6C
1501891393.72,46002,23.94,74498.0,11.37,2.13,-1.87,0,*6A
1501891394.97,46003,23.94,74500.5,11.37,2.17,-1.79,0,*6E
1501891396.2,46004,24.0,74498.5,11.39,2.51,-1.51,0,*6F
1501891397.42,46005,23.94,74492.0,11.39,2.39,-1.51,0,*60
1501891398.64,46006,23.94,74502.8,11.39,2.43,-1.51,0,*6E
1501891399.88,46007,23.94,74496.3,11.39,2.55,-1.47,0,*6F
1501891401.13,46008,23.94,74488.0,11.39,2.51,-1.47,0,*64
1501891402.36,46009,23.94,74488.8,11.39,2.61,-1.39,0,*6F
1501891403.61,46010,23.94,74492.0,11.39,2.51,-1.47,0,*6D
1501891404.83,46011,23.94,74492.8,11.39,2.43,-1.51,0,*68
1501891406.05,46012,23.94,74496.8,11.39,2.39,-1.51,0,*66
1501891407.27,46013,23.94,74498.8,11.39,2.43,-1.59,0,*62
1501891408.49,46014,23.94,74500.5,11.39,2.39,-1.59,0,*68
1501891409.71,46015,23.94,74500.8,11.39,2.43,-1.51,0,*6C
1501891410.93,46016,23.94,74498.3,11.39,2.39,-1.59,0,*6A
1501891412.18,46017,23.94,74498.5,11.39,2.51,-1.47,0,*6A
1501891413.43,46018,23.94,74498.5,11.39,2.55,-1.39,0,*68
1501891414.62,46019,23.94,74500.3,11.39,2.61,-1.29,0,*6F
1501891415.84,46020,23.94,74498.5,11.39,2.77,-1.21,0,*6A
1501891417.06,46021,23.94,74494.5,11.39,2.69,-1.29,0,*6C
1501891418.28,46022,23.94,74496.0,11.39,2.65,-1.35,0,*6E
1501891419.5,46023,23.94,74494.8,11.39,2.61,-1.35,0,*6B
1501891420.72,46024,23.94,74496.0,11.39,2.61,-1.35,0,*6C
1501891421.92,46025,23.94,74498.0,11.39,2.65,-1.25,0,*68
1501891423.14,46026,23.94,74496.0,11.37,2.65,-1.25,0,*65
1501891424.36,46027,23.94,74498.0,11.37,2.65,-1.29,0,*68
1501891425.59,46028,23.94,74504.5,11.37,2.65,-1.29,0,*67
1501891426.82,46029,23.94,74508.0,11.37,2.73,-1.33,0,*6A
1501891428.06,46030,23.94,74506.8,11.37,2.73,-1.25,0,*65
1501891429.3,46031,23.94,74504.5,11.37,2.73,-1.17,0,*65
1501891430.56,46032,23.94,74502.0,11.37,2.85,-1.13,0,*6B
1501891431.82,46033,23.94,74496.5,11.37,2.85,-1.13,0,*6A
1501891433.04,46034,23.94,74500.3,11.39,2.99,-0.97,0,*53
1501891434.28,46035,23.94,74498.8,11.39,3.11,-0.89,0,*5C
1501891435.52,46036,23.94,74502.5,11.39,3.15,-0.85,0,*57
1501891436.71,46037,23.94,74496.8,11.39,3.25,-0.73,0,*5C
1501891437.97,46038,23.94,74496.5,11.41,3.23,-0.85,0,*53
1501891439.18,46039,23.94,74498.8,11.39,3.25,-0.85,0,*5B
1501891440.44,46040,23.94,74496.3,11.41,3.23,-0.85,0,*5C
1501891441.7,46041,23.94,74492.3,11.41,3.23,-0.89,0,*51
1501891442.94,46042,23.94,74496.3,11.39,3.23,-0.89,0,*5D
1501891444.21,46043,23.94,74494.8,11.41,3.15,-1.01,0,*67
1501891445.48,46044,23.94,74498.0,11.41,3.15,-1.01,0,*60
1501891446.72,46045,23.94,74498.5,11.39,3.15,-0.97,0,*50
1501891447.96,46046,23.94,74498.8,11.39,3.23,-0.97,0,*56
1501891449.2,46047,23.94,74500.5,11.39,3.23,-1.01,0,*69
1501891450.44,46048,23.94,74492.8,11.39,3.23,-0.97,0,*58
1501891451.7,46049,23.94,74494.0,11.41,3.33,-0.89,0,*58
1501891452.93,46050,23.94,74488.0,11.39,3.33,-0.89,0,*5F
1501891454.14,46051,23.94,74502.8,11.39,3.25,-0.89,0,*59
1501891455.38,46052,23.94,74500.5,11.41,3.25,-1.01,0,*64
1501891456.63,46053,23.94,74498.8,11.41,3.33,-0.97,0,*5C
1501891457.87,46054,23.94,74504.3,11.39,3.45,-0.85,0,*56
1501891459.1,46055,23.94,74496.5,11.39,3.45,-0.85,0,*57
1501891460.32,46056,23.94,74486.8,11.39,3.53,-0.77,0,*5E
1501891461.51,46057,23.94,74484.5,11.39,3.59,-0.73,0,*51
1501891462.74,46058,23.94,74494.0,11.41,3.53,-0.77,0,*5F
1501891464.0,46059,23.94,74492.8,11.41,3.45,-0.89,0,*58
1501891465.24,46060,23.94,74496.8,11.39,3.37,-1.01,0,*69
1501891466.5,46061,23.94,74500.0,11.41,3.37,-1.01,0,*67
1501891467.74,46062,23.94,74502.0,11.39,3.37,-1.01,0,*6B
1501891469.0,46063,23.94,74500.5,11.41,3.45,-1.01,0,*60
1501891470.26,46064,23.94,74504.0,11.41,3.37,-1.01,0,*62
1501891471.52,46065,23.94,74506.5,11.41,3.45,-0.97,0,*58
1501891472.76,46066,23.94,74504.8,11.39,3.37,-1.01,0,*6F
1501891474.02,46067,23.94,74504.0,11.41,3.37,-1.01,0,*61
1501891475.26,46068,23.94,74502.0,11.39,3.45,-1.01,0,*64
1501891476.52,46069,23.94,74502.8,11.41,3.45,-1.01,0,*6A
1501891477.77,46070,23.94,74500.5,11.39,3.45,-1.01,0,*6D
1501891479.01,46071,23.94,74506.5,11.39,3.37,-1.01,0,*69
1501891480.25,46072,23.94,74508.0,11.39,3.45,-1.09,0,*67
1501891481.49,46073,23.94,74504.8,11.39,3.45,-1.09,0,*66
1501891482.73,46074,23.94,74510.5,11.39,3.45,-1.09,0,*61
1501891483.97,46075,23.94,74508.3,11.39,3.49,-1.09,0,*6C
1501891485.21,46076,23.94,74508.8,11.39,3.49,-1.01,0,*67
1501891486.45,46077,23.94,74506.3,11.39,3.53,-1.01,0,*6D
1501891487.69,46078,23.94,74506.8,11.39,3.53,-1.01,0,*62
1501891488.92,46079,23.94,74506.3,11.39,3.49,-0.97,0,*56
1501891490.18,46080,23.94,74508.0,11.37,3.49,-1.01,0,*60
1501891491.43,46081,23.94,74508.3,11.37,3.71,-0.81,0,*53
1501891492.65,46082,23.94,74500.8,11.37,3.81,-0.77,0,*56
1501891493.86,46083,23.94,74498.0,11.37,3.89,-0.69,0,*50
1501891495.08,46084,23.94,74492.3,11.37,3.89,-0.69,0,*57
1501891496.33,46085,23.94,74496.3,11.37,3.79,-0.81,0,*5F
1501891497.57,46086,23.94,74498.3,11.39,3.75,-0.89,0,*56
1501891498.84,46087,23.94,74498.8,11.37,3.67,-0.93,0,*51
1501891500.1,46088,23.94,74500.8,11.37,3.67,-0.93,0,*5E
1501891501.33,46089,23.94,74502.0,11.37,3.55,-0.93,0,*5E
1501891502.57,46090,23.94,74504.5,11.37,3.55,-1.01,0,*6C
1501891503.79,46091,23.94,74506.3,11.35,3.59,-1.05,0,*67
1501891505.0,46092,23.94,74506.8,11.37,3.81,-0.65,0,*54
1501891506.25,46093,23.94,74506.3,11.37,3.79,-0.77,0,*51
1501891507.5,46094,23.94,74506.3,11.37,3.71,-0.77,0,*5E
1501891508.71,46095,23.94,74500.5,11.37,3.93,-0.53,0,*55
1501891509.96,46096,23.94,74498.8,11.37,4.05,-0.37,0,*5C
1501891511.21,46097,23.94,74494.8,11.37,4.05,-0.37,0,*5D
1501891512.47,46098,23.94,74478.0,11.37,4.05,-0.41,0,*53
1501891513.66,46099,23.94,74468.3,11.39,4.07,-0.33,0,*5B
1501891514.88,46100,23.94,74464.8,11.39,4.07,-0.27,0,*5F
1501891516.12,46101,23.94,74462.8,11.41,4.15,-0.27,0,*52
1501891517.31,46102,23.94,74466.3,11.39,4.15,-0.33,0,*5B
1501891518.55,46103,23.94,74462.0,11.41,4.05,-0.33,0,*54
1501891519.75,46104,23.94,74462.5,11.39,4.07,-0.33,0,*5E
1501891520.99,46105,23.94,74462.0,11.41,3.97,-0.33,0,*5E
1501891522.2,46106,23.94,74458.3,11.39,3.97,-0.49,0,*5F
1501891523.4,46107,23.94,74464.5,11.39,3.93,-0.53,0,*51
1501891524.61,46108,23.94,74468.5,11.41,3.81,-0.53,0,*52
1501891525.82,46109,23.94,74476.3,11.41,3.93,-0.49,0,*5B
1501891527.04,46110,23.94,74476.8,11.41,3.85,-0.37,0,*5D
1501891528.25,46111,23.94,74486.3,11.39,3.97,-0.37,0,*50
1501891529.47,46112,23.94,74486.0,11.41,3.85,-0.37,0,*5F
1501891530.68,46113,23.94,74490.3,11.41,3.81,-0.49,0,*53
1501891531.89,46114,23.94,74490.3,11.41,3.81,-0.53,0,*5F
1501891533.1,46115,23.94,74494.8,11.41,3.85,-0.49,0,*51
1501891534.32,46116,23.94,74488.8,11.41,3.93,-0.33,0,*58
1501891535.51,46117,23.94,74492.8,11.39,3.81,-0.37,0,*51
1501891536.75,46118,23.94,74490.3,11.41,4.07,-0.27,0,*59
1501891538.01,46119,23.94,74484.8,11.41,4.05,-0.23,0,*5E
1501891539.27,46120,23.94,74476.3,11.41,4.05,-0.23,0,*54
1501891540.54,46121,23.94,74482.8,11.41,4.05,-0.23,0,*55
1501891541.76,46122,23.94,74482.8,11.41,4.07,-0.11,0,*55
1501891542.97,46123,23.94,74484.8,11.41,4.07,-0.15,0,*50
1501891544.22,46124,23.94,74492.5,11.41,4.05,-0.15,0,*55
1501891545.46,46125,23.94,74490.0,11.41,4.05,-0.15,0,*54
1501891546.65,46126,23.94,74490.8,11.43,4.07,-0.19,0,*5B
1501891547.89,46127,23.94,74484.5,11.43,3.97,-0.23,0,*5D
1501891549.12,46128,23.94,74486.8,11.41,3.93,-0.27,0,*50
1501891550.36,46129,23.94,74480.0,11.41,3.85,-0.23,0,*52
1501891551.55,46130,23.94,74480.3,11.43,3.89,-0.11,0,*55
1501891552.74,46131,23.94,74476.8,11.43,3.89,-0.19,0,*5C
1501891553.96,46132,23.94,74476.5,11.45,3.93,-0.19,0,*52
1501891555.17,46133,23.94,74478.5,11.43,3.85,-0.23,0,*5B
1501891556.41,46134,23.94,74480.5,11.43,3.79,-0.23,0,*5F
1501891557.64,46135,23.94,74482.8,11.43,3.79,-0.23,0,*5E
1501891558.88,46136,23.94,74480.3,11.43,3.79,-0.23,0,*5D
1501891560.12,46137,23.94,74478.8,11.43,3.79,-0.23,0,*5C
1501891561.34,46138,23.94,74476.5,11.43,3.75,-0.19,0,*56
1501891562.56,46139,23.94,74482.8,11.43,3.79,-0.19,0,*5B
1501891563.82,46140,23.94,74486.0,11.41,3.75,-0.23,0,*52
1501891565.07,46141,23.94,74488.0,11.41,3.75,-0.11,0,*52
1501891566.27,46142,23.94,74486.3,11.41,3.81,-0.03,0,*69
1501891567.48,46143,23.94,74486.8,11.45,3.81,-0.03,0,*6C
1501891568.69,46144,23.94,74488.8,11.43,3.75,-0.07,0,*62
1501891569.93,46145,23.94,74482.5,11.41,3.75,-0.03,0,*65
1501891571.17,46146,23.94,74476.5,11.41,3.93,0.21,0,*73
1501891572.4,46147,23.94,74476.3,11.41,3.85,0.21,0,*75
1501891573.6,46148,23.94,74474.3,11.41,3.81,0.09,0,*44
1501891574.83,46149,23.94,74486.0,11.41,3.71,0.09,0,*4A
1501891576.06,46150,23.94,74484.0,11.43,4.01,0.37,0,*7D
1501891577.29,46151,23.94,74488.5,11.43,4.01,0.37,0,*7C
1501891578.47,46152,23.94,74488.8,11.43,4.07,0.43,0,*7A
1501891579.68,46153,23.94,74484.5,11.43,4.11,0.51,0,*7F
1501891580.89,46154,23.94,74462.0,11.43,4.19,0.55,0,*74
1501891582.13,46155,23.94,74468.3,11.45,4.15,0.55,0,*7F
1501891583.36,46156,23.94,74474.5,11.45,3.93,0.47,0,*76
1501891584.57,46157,23.94,74464.3,11.43,3.89,0.51,0,*7D
1501891585.83,46158,23.94,74464.0,11.45,4.01,0.47,0,*74
1501891587.06,46159,23.94,74478.5,11.45,3.89,0.47,0,*72
1501891588.27,46160,23.94,74482.8,11.45,3.81,0.43,0,*74
1501891589.52,46161,23.94,74488.8,11.45,3.79,0.41,0,*70
1501891590.75,46162,23.94,74490.5,11.43,3.71,0.41,0,*7D
1501891591.98,46163,23.94,74490.8,11.43,3.75,0.41,0,*78
1501891593.19,46164,23.94,74492.0,11.43,3.75,0.43,0,*7D
1501891594.45,46165,23.94,74494.8,11.45,3.79,0.47,0,*72
1501891595.69,46166,23.94,74494.0,11.43,3.67,0.41,0,*7E
1501891596.89,46167,23.94,74494.3,11.43,3.63,0.51,0,*7A
1501891598.12,46168,23.94,74492.3,11.45,3.81,0.59,0,*77
1501891599.35,46169,23.94,74498.5,11.43,3.79,0.63,0,*7E
1501891600.58,46170,23.94,74496.8,11.45,3.89,0.67,0,*7B
1501891601.81,46171,23.94,74498.8,11.45,3.81,0.67,0,*72
1501891603.03,46172,23.94,74494.5,11.45,3.81,0.71,0,*76
1501891604.27,46173,23.94,74494.0,11.45,3.89,0.71,0,*7F
1501891605.52,46174,23.94,74496.3,11.45,3.79,0.71,0,*77
1501891606.75,46175,23.94,74496.5,11.43,3.75,0.67,0,*7B
1501891607.99,46176,23.94,74504.8,11.43,3.79,0.75,0,*77
1501891609.24,46177,23.94,74504.8,11.45,3.79,0.79,0,*7C
1501891610.48,46178,23.94,74504.8,11.43,3.79,0.87,0,*74
1501891611.69,46179,23.94,74504.8,11.45,3.89,1.01,0,*43
1501891612.93,46180,23.94,74502.3,11.45,3.89,0.91,0,*7D
1501891614.14,46181,23.94,74494.8,11.43,4.11,1.09,0,*4C
1501891615.38,46182,23.94,74498.8,11.45,4.15,1.21,0,*47
1501891616.61,46183,23.94,74498.0,11.45,4.27,1.29,0,*4F
1501891617.84,46184,23.94,74486.0,11.45,4.31,1.41,0,*41
1501891619.07,46185,23.94,74484.0,11.45,4.27,1.33,0,*42
1501891620.3,46186,23.94,74488.0,11.45,4.41,1.55,0,*41
1501891621.56,46187,23.94,74488.0,11.45,4.31,1.51,0,*43
1501891622.77,46188,23.94,74498.3,11.47,4.41,1.63,0,*48
1501891623.97,46189,23.94,74492.3,11.47,4.49,1.55,0,*44
1501891625.18,46190,23.94,74494.5,11.47,4.41,1.55,0,*44
1501891626.41,46191,23.94,74492.3,11.47,4.31,1.51,0,*46
1501891627.64,46192,23.94,74494.0,11.49,4.33,1.59,0,*41
1501891628.86,46193,23.94,74494.8,11.49,4.45,1.71,0,*4B
1501891630.06,46194,23.94,74494.8,11.49,4.45,1.79,0,*44
1501891631.27,46195,23.94,74492.5,11.49,4.57,1.83,0,*43
1501891632.47,46196,23.94,74496.5,11.49,4.45,1.79,0,*46
1501891633.68,46197,23.94,74488.5,11.51,4.33,1.63,0,*44
1501891634.89,46198,23.94,74502.3,11.51,4.37,1.63,0,*4F
1501891636.12,46199,23.94,74496.5,11.51,4.31,1.71,0,*4B
1501891637.38,46200,23.94,74502.8,11.53,4.31,1.59,0,*40
1501891638.6,46201,23.94,74504.8,11.53,4.23,1.47,0,*4D
1501891639.83,46202,23.94,74500.0,11.53,4.19,1.47,0,*47
1501891641.04,46203,23.94,74494.8,11.51,4.23,1.63,0,*4B
1501891642.22,46204,23.94,74490.8,11.51,4.33,1.75,0,*4A
1501891643.41,46205,23.94,74498.8,11.51,4.45,1.75,0,*4A
1501891644.61,46206,23.94,74496.8,11.51,4.33,1.71,0,*4C
1501891645.82,46207,23.94,74496.8,11.51,4.31,1.83,0,*42
1501891647.03,46208,23.94,74494.3,11.53,4.33,1.83,0,*4D
1501891648.22,46209,23.94,74498.0,11.51,4.33,1.83,0,*4E
1501891649.48,46210,23.94,74498.5,11.53,4.31,1.71,0,*4B
1501891650.71,46211,23.94,74502.8,11.51,4.31,1.71,0,*48
1501891651.93,46212,23.94,74504.0,11.53,4.19,1.71,0,*43
1501891653.16,46213,23.94,74502.3,11.49,4.19,1.67,0,*4E
1501891654.36,46214,23.94,74498.8,11.51,4.23,1.71,0,*4E
1501891655.58,46215,23.94,74502.8,11.51,4.31,1.75,0,*48
1501891656.84,46216,23.94,74498.8,11.53,4.31,1.85,0,*46
1501891658.06,46217,23.94,74502.0,11.51,4.37,1.85,0,*43
1501891659.27,46218,23.94,74506.0,11.51,4.31,1.83,0,*4C
1501891660.48,46219,23.94,74504.5,11.49,4.27,1.79,0,*46
1501891661.69,46220,23.94,74504.8,11.51,4.31,1.83,0,*47
1501891662.9,46221,23.94,74506.0,11.51,4.33,1.93,0,*45
1501891664.15,46222,23.94,74504.5,11.49,4.31,1.93,0,*4D
1501891665.38,46223,23.94,74500.8,11.49,4.41,2.05,0,*47
1501891666.64,46224,23.94,74504.0,11.49,4.63,2.09,0,*4C
1501891667.9,46225,23.94,74492.0,11.53,4.59,2.13,0,*44
1501891669.13,46226,23.94,74498.0,11.53,4.49,2.09,0,*4D
1501891670.33,46227,23.94,74492.8,11.51,4.49,2.09,0,*4E
1501891671.54,46228,23.94,74498.0,11.51,4.45,2.05,0,*41
1501891672.75,46229,23.94,74500.3,11.51,4.45,2.05,0,*40
1501891673.96,46230,23.94,74502.5,11.51,4.37,1.97,0,*45
1501891675.16,46231,23.94,74504.0,11.51,4.37,1.97,0,*44
1501891676.38,46232,23.94,74504.0,11.51,4.37,1.97,0,*47
1501891677.59,46233,23.94,74504.0,11.51,4.37,2.05,0,*4E
1501891678.8,46234,23.94,74504.3,11.51,4.33,2.05,0,*4D
1501891680.03,46235,23.94,74504.5,11.53,4.33,2.05,0,*4E
1501891681.24,46236,23.94,74504.5,11.51,4.33,2.05,0,*4F
1501891682.45,46237,23.94,74506.8,11.51,4.33,2.05,0,*4E
1501891683.68,46238,23.94,74506.3,11.49,4.41,2.01,0,*49
1501891684.89,46239,23.94,74500.5,11.51,4.57,2.09,0,*4E
1501891686.09,46240,23.94,74500.3,11.51,4.57,2.21,0,*4A
1501891687.3,46241,23.94,74500.0,11.51,4.57,2.13,0,*4A
1501891688.54,46242,23.94,74502.8,11.51,4.59,2.13,0,*47
1501891689.78,46243,23.94,74502.0,11.51,4.59,2.13,0,*46
1501891691.02,46244,23.94,74502.8,11.53,4.57,2.13,0,*4D
1501891692.22,46245,23.94,74502.3,11.51,4.49,2.13,0,*41
1501891693.43,46246,23.94,74504.5,11.51,4.49,2.09,0,*49
1501891694.63,46247,23.94,74510.3,11.51,4.49,2.09,0,*48
1501891695.84,46248,23.94,74506.8,11.51,4.57,2.09,0,*48
1501891697.05,46249,23.94,74504.8,11.51,4.57,2.09,0,*49
1501891698.28,46250,23.94,74506.3,11.49,4.53,2.09,0,*4C
1501891699.51,46251,23.94,74498.0,11.49,4.57,2.17,0,*46
1501891700.74,46252,23.94,74494.5,11.51,4.59,2.21,0,*47
1501891701.98,46253,23.94,74498.0,11.51,4.59,2.21,0,*46
1501891703.21,46254,23.94,74488.5,11.51,4.79,2.25,0,*47
1501891704.42,46255,23.94,74488.3,11.51,4.57,2.13,0,*4F
1501891705.65,46256,23.94,74490.3,11.53,4.57,2.13,0,*4E
1501891706.86,46257,23.94,74496.0,11.51,4.57,2.09,0,*46
1501891708.07,46258,23.94,74496.3,11.51,4.49,2.09,0,*46
1501891709.27,46259,23.94,74504.5,11.51,4.57,2.05,0,*44
1501891710.51,46260,23.94,74506.8,11.51,4.59,2.09,0,*4C
1501891711.75,46261,23.94,74504.5,11.51,4.59,2.09,0,*4D
1501891712.96,46262,23.94,74506.5,11.51,4.57,2.05,0,*4C
1501891714.16,46263,23.94,74504.3,11.51,4.57,2.05,0,*4D
1501891715.39,46264,23.94,74508.8,11.53,4.57,2.05,0,*48
1501891716.62,46265,23.94,74508.8,11.53,4.57,2.05,0,*49
1501891717.83,46266,23.94,74514.8,11.51,4.49,2.09,0,*4B
1501891719.03,46267,23.94,74516.0,11.51,4.57,2.09,0,*45
1501891720.24,46268,23.94,74520.3,11.51,4.57,2.05,0,*46
1501891721.45,46269,23.94,74522.0,11.51,4.57,2.05,0,*47
1501891722.68,46270,23.94,74514.0,11.51,4.67,2.21,0,*4A